When you browse on this site, cookies collect data to enhance your experience and personalize the content and advertising you see.
Visit our Privacy Policy to learn more. By continuing to use the site, you agree to this use of cookies and data.
  • In Italy
  • List of Countries
  • For 7 days
  • Water Temperature
  • Satellite Maps
  • Weather Map
  • Weather Widgets
  • user-avatar
    Login

    Hourly Weather Portalegre

    Today, 16 January, Wednesday

    Time Temperature Precipitation Wind Pressure Humidity
    00:00 +4°C° 0 mm 0 mps 725 mmHg 90%
    01:00 +4°C° 0 mm 0 mps 724 mmHg 91%
    02:00 +3°C° 0 mm 0 mps 724 mmHg 91%
    03:00 +3°C° 0 mm 0 mps 724 mmHg 92%
    04:00 +3°C° 0 mm 0 mps 724 mmHg 92%
    05:00 +3°C° 0 mm 0 mps 724 mmHg 93%
    06:00 +2°C° 0 mm 0 mps 724 mmHg 93%
    07:00 +3°C° 0 mm 0 mps 724 mmHg 91%
    08:00 +4°C° 0 mm 0 mps 724 mmHg 89%
    09:00 +4°C° 0 mm 0 mps 724 mmHg 87%
    10:00 +7°C° 0 mm 1 mps 724 mmHg 81%
    11:00 +9°C° 0 mm 1 mps 724 mmHg 75%
    12:00 +12°C° 0 mm 1 mps 724 mmHg 69%
    13:00 +12°C° 0 mm 1 mps 724 mmHg 71%
    14:00 +11°C° 0 mm 1 mps 723 mmHg 72%
    15:00 +11°C° 0 mm 1 mps 723 mmHg 73%
    16:00 +10°C° 0 mm 1 mps 723 mmHg 78%
    17:00 +9°C° 0 mm 1 mps 723 mmHg 83%
    18:00 +7°C° 0 mm 0 mps 723 mmHg 88%
    19:00 +7°C° 0 mm 0 mps 723 mmHg 90%
    20:00 +7°C° 0 mm 0 mps 723 mmHg 92%
    21:00 +6°C° 0 mm 0 mps 723 mmHg 93%
    22:00 +6°C° 0.1 mm 0 mps 723 mmHg 94%
    23:00 +6°C° 0.1 mm 0 mps 723 mmHg 95%

    Tomorrow, 17 January, Thursday

    Time Temperature Precipitation Wind Pressure Humidity
    00:00 +6°C° 0.1 mm 0 mps 723 mmHg 96%
    01:00 +6°C° 0 mm 0 mps 723 mmHg 96%
    02:00 +5°C° 0 mm 0 mps 723 mmHg 97%
    03:00 +5°C° 0 mm 0 mps 723 mmHg 97%
    04:00 +5°C° 0 mm 0 mps 723 mmHg 97%
    05:00 +5°C° 0 mm 0 mps 723 mmHg 97%
    06:00 +5°C° 0 mm 0 mps 723 mmHg 98%
    07:00 +5°C° 0 mm 0 mps 724 mmHg 97%
    08:00 +6°C° 0 mm 1 mps 724 mmHg 96%
    09:00 +7°C° 0 mm 1 mps 724 mmHg 95%
    10:00 +9°C° 0 mm 1 mps 724 mmHg 87%
    11:00 +10°C° 0 mm 1 mps 725 mmHg 79%
    12:00 +12°C° 0 mm 1 mps 725 mmHg 71%
    13:00 +12°C° 0 mm 2 mps 724 mmHg 67%
    14:00 +13°C° 0 mm 2 mps 724 mmHg 64%
    15:00 +13°C° 0 mm 2 mps 724 mmHg 61%
    16:00 +12°C° 0 mm 2 mps 724 mmHg 68%
    17:00 +10°C° 0 mm 1 mps 724 mmHg 75%
    18:00 +8°C° 0 mm 1 mps 724 mmHg 83%
    19:00 +7°C° 0 mm 1 mps 724 mmHg 85%
    20:00 +7°C° 0 mm 1 mps 724 mmHg 87%
    21:00 +6°C° 0 mm 1 mps 725 mmHg 88%
    22:00 +6°C° 0 mm 1 mps 725 mmHg 89%
    23:00 +5°C° 0 mm 1 mps 725 mmHg 89%

    Day after tomorrow, 18 January, Friday

    Time Temperature Precipitation Wind Pressure Humidity
    00:00 +5°C° 0 mm 1 mps 725 mmHg 89%
    01:00 +4°C° 0 mm 1 mps 725 mmHg 89%
    02:00 +4°C° 0 mm 1 mps 725 mmHg 90%
    03:00 +4°C° 0 mm 1 mps 725 mmHg 90%
    04:00 +4°C° 0 mm 1 mps 725 mmHg 90%
    05:00 +3°C° 0 mm 1 mps 725 mmHg 90%
    06:00 +3°C° 0 mm 1 mps 724 mmHg 91%
    07:00 +4°C° 0 mm 1 mps 725 mmHg 88%
    08:00 +4°C° 0 mm 1 mps 725 mmHg 85%
    09:00 +4°C° 0 mm 0 mps 725 mmHg 82%
    10:00 +7°C° 0 mm 1 mps 726 mmHg 75%
    11:00 +9°C° 0 mm 1 mps 726 mmHg 67%
    12:00 +11°C° 0 mm 1 mps 726 mmHg 60%
    13:00 +10°C° 0 mm 2 mps 725 mmHg 59%
    14:00 +12°C° 0 mm 2 mps 725 mmHg 58%
    15:00 +11°C° 0 mm 3 mps 724 mmHg 58%
    16:00 +9°C° 0 mm 2 mps 725 mmHg 64%
    17:00 +8°C° 0 mm 2 mps 725 mmHg 71%
    18:00 +6°C° 0 mm 2 mps 725 mmHg 77%
    19:00 +6°C° 0 mm 2 mps 725 mmHg 82%
    20:00 +5°C° 0 mm 2 mps 725 mmHg 86%
    21:00 +5°C° 0 mm 2 mps 725 mmHg 91%
    22:00 +5°C° 0 mm 2 mps 725 mmHg 93%
    23:00 +5°C° 0 mm 2 mps 725 mmHg 95%

    19 January, Saturday

    Time Temperature Precipitation Wind Pressure Humidity
    00:00 +5°C° 0 mm 1 mps 725 mmHg 97%
    01:00 +6°C° 0.1 mm 1 mps 725 mmHg 97%
    02:00 +6°C° 0.1 mm 1 mps 725 mmHg 97%
    03:00 +7°C° 0.1 mm 1 mps 724 mmHg 97%
    04:00 +6°C° 0.4 mm 2 mps 724 mmHg 98%
    05:00 +7°C° 0.4 mm 2 mps 724 mmHg 98%
    06:00 +7°C° 0.4 mm 2 mps 724 mmHg 98%
    07:00 +8°C° 0.1 mm 2 mps 724 mmHg 98%
    08:00 +8°C° 0.1 mm 2 mps 724 mmHg 98%
    09:00 +9°C° 0.1 mm 3 mps 724 mmHg 97%
    10:00 +9°C° 0.3 mm 3 mps 724 mmHg 96%
    11:00 +10°C° 0.3 mm 4 mps 724 mmHg 95%
    12:00 +10°C° 0.3 mm 5 mps 724 mmHg 93%
    13:00 +10°C° 0.3 mm 5 mps 723 mmHg 92%
    14:00 +10°C° 0.3 mm 6 mps 722 mmHg 90%
    15:00 +10°C° 0.3 mm 6 mps 721 mmHg 89%
    16:00 +10°C° 1 mm 6 mps 721 mmHg 92%
    17:00 +10°C° 1 mm 5 mps 720 mmHg 94%
    18:00 +10°C° 1 mm 5 mps 720 mmHg 96%
    19:00 +10°C° 0.1 mm 4 mps 720 mmHg 96%
    20:00 +10°C° 0.1 mm 4 mps 720 mmHg 96%
    21:00 +10°C° 0.1 mm 4 mps 720 mmHg 96%
    22:00 +10°C° 0 mm 4 mps 720 mmHg 96%
    23:00 +10°C° 0 mm 4 mps 720 mmHg 96%

    20 January, Sunday

    Time Temperature Precipitation Wind Pressure Humidity
    00:00 +10°C° 0 mm 4 mps 720 mmHg 96%
    01:00 +8°C° 0 mm 4 mps 720 mmHg 96%
    02:00 +7°C° 0 mm 4 mps 721 mmHg 95%
    03:00 +6°C° 0 mm 4 mps 721 mmHg 95%
    04:00 +5°C° 0 mm 3 mps 721 mmHg 95%
    05:00 +4°C° 0 mm 3 mps 721 mmHg 95%
    06:00 +4°C° 0 mm 3 mps 721 mmHg 96%
    07:00 +5°C° 0 mm 2 mps 722 mmHg 95%
    08:00 +5°C° 0 mm 2 mps 723 mmHg 94%
    09:00 +5°C° 0 mm 2 mps 724 mmHg 94%
    10:00 +7°C° 0 mm 3 mps 724 mmHg 86%
    11:00 +8°C° 0 mm 3 mps 725 mmHg 78%
    12:00 +10°C° 0 mm 3 mps 725 mmHg 71%
    13:00 +11°C° 0 mm 3 mps 725 mmHg 66%
    14:00 +11°C° 0 mm 3 mps 725 mmHg 62%
    15:00 +12°C° 0 mm 3 mps 724 mmHg 57%
    16:00 +10°C° 0 mm 3 mps 725 mmHg 63%
    17:00 +8°C° 0 mm 2 mps 725 mmHg 70%
    18:00 +7°C° 0 mm 2 mps 725 mmHg 76%
    19:00 +6°C° 0 mm 2 mps 725 mmHg 78%
    20:00 +5°C° 0 mm 2 mps 726 mmHg 80%
    21:00 +5°C° 0 mm 2 mps 726 mmHg 83%
    22:00 +4°C° 0 mm 2 mps 726 mmHg 85%
    23:00 +5°C° 0 mm 1 mps 726 mmHg 88%

    21 January, Monday

    Time Temperature Precipitation Wind Pressure Humidity
    00:00 +5°C° 0 mm 1 mps 727 mmHg 90%
    01:00 +4°C° 0 mm 1 mps 727 mmHg 91%
    02:00 +4°C° 0 mm 1 mps 726 mmHg 92%
    03:00 +4°C° 0 mm 1 mps 726 mmHg 93%
    04:00 +4°C° 0 mm 1 mps 726 mmHg 93%
    05:00 +4°C° 0 mm 1 mps 726 mmHg 93%
    06:00 +3°C° 0 mm 1 mps 726 mmHg 93%
    07:00 +4°C° 0 mm 1 mps 727 mmHg 90%
    08:00 +5°C° 0 mm 1 mps 727 mmHg 87%
    09:00 +4°C° 0 mm 2 mps 728 mmHg 84%
    10:00 +6°C° 0 mm 2 mps 728 mmHg 75%
    11:00 +8°C° 0 mm 2 mps 728 mmHg 67%
    12:00 +10°C° 0 mm 3 mps 728 mmHg 58%
    13:00 +11°C° 0 mm 3 mps 728 mmHg 57%
    14:00 +11°C° 0 mm 3 mps 728 mmHg 55%
    15:00 +11°C° 0 mm 3 mps 727 mmHg 53%
    16:00 +10°C° 0 mm 3 mps 727 mmHg 59%
    17:00 +8°C° 0 mm 2 mps 727 mmHg 66%
    18:00 +6°C° 0 mm 2 mps 727 mmHg 72%
    19:00 +5°C° 0 mm 2 mps 728 mmHg 74%
    20:00 +4°C° 0 mm 2 mps 728 mmHg 76%
    21:00 +4°C° 0 mm 2 mps 728 mmHg 77%
    22:00 +3°C° 0 mm 2 mps 728 mmHg 79%
    23:00 +4°C° 0 mm 1 mps 728 mmHg 80%
    Show more